This is the latest recevied weather packets stored in our database for station/object KY4EF. If no packets are shown the sender has not sent any weather packets the latest 10 day(s).
| Time | Temp. | Humidity | Pressure | Rain* | Wind** | Luminosity | Snow |
|---|---|---|---|---|---|---|---|
| 1777951122 | 11.67° C | 82% | 1013.8 hPa | 0 mm | - | 0 W/m² | - |
| 1777950819 | 12.22° C | 81% | 1013.9 hPa | 0 mm | - | 0 W/m² | - |
| 1777950516 | 12.22° C | 81% | 1013.9 hPa | 0 mm | - | 0 W/m² | - |
| 1777950212 | 12.22° C | 79% | 1014 hPa | 0 mm | - | 0 W/m² | - |
| 1777949908 | 12.78° C | 79% | 1013.9 hPa | 0 mm | - | 0 W/m² | - |
| 1777949606 | 12.78° C | 78% | 1014.2 hPa | 0 mm | - | 0 W/m² | - |
| 1777949304 | 12.78° C | 78% | 1013.9 hPa | 0 mm | - | 0 W/m² | - |
| 1777949001 | 12.78° C | 78% | 1013.9 hPa | 0 mm | - | 0 W/m² | - |
| 1777948698 | 12.78° C | 78% | 1014.2 hPa | 0 mm | - | 0 W/m² | - |
| 1777948395 | 13.33° C | 76% | 1014.1 hPa | 0 mm | - | 0 W/m² | - |
| 1777948092 | 13.33° C | 75% | 1014.2 hPa | 0 mm | - | 0 W/m² | - |
| 1777947789 | 13.89° C | 75% | 1014 hPa | 0 mm | - | 0 W/m² | - |
| 1777947486 | 13.89° C | 73% | 1014.1 hPa | 0 mm | - | 0 W/m² | - |
| 1777947183 | 13.89° C | 73% | 1014.1 hPa | 0 mm | - | 0 W/m² | - |
| 1777946879 | 13.89° C | 73% | 1014 hPa | 0 mm | - | 0 W/m² | - |
| 1777946574 | 13.89° C | 73% | 1013.6 hPa | 0 mm | - | 0 W/m² | - |
| 1777946272 | 14.44° C | 72% | 1013.8 hPa | 0 mm | - | 0 W/m² | - |
| 1777945968 | 14.44° C | 71% | 1013.5 hPa | 0 mm | - | 0 W/m² | - |
| 1777945666 | 15° C | 69% | 1013.6 hPa | 0 mm | - | 0 W/m² | - |
| 1777945363 | 15° C | 66% | 1013.8 hPa | 0 mm | - | 0 W/m² | - |
| 1777945059 | 15.56° C | 65% | 1013.6 hPa | 0 mm | - | 0 W/m² | - |
| 1777944757 | 15° C | 67% | 1013.5 hPa | 0 mm | - | 0 W/m² | - |
| 1777944455 | 15.56° C | 64% | 1013.6 hPa | 0 mm | - | 0 W/m² | - |
| 1777944152 | 15.56° C | 65% | 1013.5 hPa | 0 mm | - | 0 W/m² | - |
| 1777943847 | 15.56° C | 65% | 1013.2 hPa | 0 mm | - | 0 W/m² | - |
* Rain latest hour (hover to see other rain measurements)
** Current wind speed in m/s (hover to see current wind gust speed)